Weather History for Buena Vista, CO

Change the Weather History Date:

Tuesday, January 14, 2014

  Actual Average (KLXV) Record (KLXV)
Temperature  
Mean Temperature 30 °F -  
Max Temperature 35 °F 30 °F 45 °F (1983)
Min Temperature 25 °F 4 °F -22 °F (2013)
Degree Days  
Heating Degree Days 35 48  
Month to date heating degree days 672  
Since 1 July heating degree days 5573  
Cooling Degree Days 0 0  
Month to date cooling degree days 0  
Year to date cooling degree days 0  
Moisture  
Dew Point 12 °F    
Average Humidity 48    
Maximum Humidity 64    
Minimum Humidity 33    
Precipitation  
Precipitation 0.00 in 0.02 in 0.24 in (2014)
Month to date precipitation 0.29  
Year to date precipitation 0.29  
Sea Level Pressure  
Sea Level Pressure 30.27 in    
Wind  
Wind Speed 14 mph (NW)    
Max Wind Speed 24 mph    
Max Gust Speed 33 mph    
Visibility 10 miles    
Events      
T = Trace of Precipitation, MM = Missing Value Source: NWS Daily Summary

Daily Weather History Graph

Daily Weather History Graph

Search for Another Location

Airport:

Trip Planner

Search our weather history database for the weather conditions in past years. The results will help you decide how hot, cold, wet, or windy it might be!

Date:

Astronomy

Jan. 14, 2014 Rise Set
Actual Time 7:21 AM MST 5:05 PM MST
Civil Twilight 6:52 AM MST 5:35 PM MST
Nautical Twilight 6:19 AM MST 6:07 PM MST
Astronomical Twilight 5:47 AM MST 6:39 PM MST
Moon 4:13 PM MST (1/14) 5:58 AM MST (1/14)
Length of Visible Light 10h 42m
Length of Day
9h 44m
Waxing Gibbous, 98% of the Moon is Illuminated
Jan 14
Waxing Gibbous
Jan 15
Full
Jan 23
Last Quarter
Jan 30
New
Feb 6
First Quarter

Hourly Weather History & Observations

Time (MST) Temp. Windchill Dew Point Humidity Pressure Visibility Wind Dir Wind Speed Gust Speed Precip Events Conditions
12:15 AM 29.7 °F 16.4 °F 9.5 °F 43% 30.13 in 10.0 mi NW 21.9 mph 29.9 mph N/A   Clear
12:35 AM 29.7 °F 16.4 °F 10.6 °F 45% 30.14 in 10.0 mi NW 21.9 mph 33.4 mph N/A   Clear
12:55 AM 28.4 °F 18.5 °F 11.1 °F 48% 30.15 in 10.0 mi WNW 11.5 mph 19.6 mph N/A   Clear
1:15 AM 27.0 °F 17.3 °F 10.2 °F 49% 30.14 in 10.0 mi West 10.4 mph 17.3 mph N/A   Clear
1:35 AM 27.0 °F 15.6 °F 10.6 °F 50% 30.15 in 10.0 mi WNW 13.8 mph 20.7 mph N/A   Clear
1:55 AM 27.3 °F 13.6 °F 10.8 °F 50% 30.17 in 10.0 mi WNW 20.7 mph 26.5 mph N/A   Clear
2:15 AM 27.5 °F 15.4 °F 10.8 °F 49% 30.16 in 10.0 mi WNW 16.1 mph 21.9 mph N/A   Clear
2:35 AM 28.0 °F 16.1 °F 11.1 °F 49% 30.17 in 10.0 mi WNW 16.1 mph 25.3 mph N/A   Clear
2:55 AM 27.0 °F 15.2 °F 12.0 °F 53% 30.17 in 10.0 mi WNW 15.0 mph 21.9 mph N/A   Clear
3:15 AM 26.1 °F 17.6 °F 11.8 °F 55% 30.17 in 10.0 mi WNW 8.1 mph - N/A   Clear
3:35 AM 27.0 °F 18.7 °F 11.3 °F 52% 30.17 in 10.0 mi WNW 8.1 mph 17.3 mph N/A   Clear
3:55 AM 26.6 °F 16.2 °F 11.7 °F 53% 30.17 in 10.0 mi West 11.5 mph - N/A   Scattered Clouds
4:15 AM 26.2 °F 15.8 °F 12.6 °F 56% 30.19 in 10.0 mi WNW 11.5 mph - N/A   Mostly Cloudy
4:35 AM 26.6 °F 15.7 °F 13.3 °F 57% 30.19 in 10.0 mi WNW 12.7 mph 18.4 mph N/A   Overcast
4:55 AM 25.9 °F 17.4 °F 13.8 °F 60% 30.19 in 10.0 mi WNW 8.1 mph - N/A   Overcast
5:15 AM 26.4 °F 14.5 °F 13.6 °F 59% 30.19 in 10.0 mi WNW 15.0 mph 18.4 mph N/A   Overcast
5:35 AM 25.9 °F 12.1 °F 14.4 °F 62% 30.19 in 10.0 mi NW 19.6 mph 24.2 mph N/A   Overcast
5:55 AM 25.9 °F 11.7 °F 15.3 °F 64% 30.19 in 10.0 mi NW 20.7 mph 27.6 mph N/A   Scattered Clouds
6:15 AM 26.2 °F 12.6 °F 13.5 °F 59% 30.19 in 10.0 mi NW 19.6 mph 25.3 mph N/A   Clear
6:35 AM 25.9 °F 13.3 °F 12.9 °F 58% 30.19 in 10.0 mi NW 16.1 mph - N/A   Clear
6:55 AM 26.4 °F 14.5 °F 11.3 °F 53% 30.19 in 10.0 mi NW 15.0 mph 24.2 mph N/A   Clear
7:15 AM 26.4 °F 14.5 °F 11.5 °F 53% 30.19 in 10.0 mi NW 15.0 mph 27.6 mph N/A   Clear
7:35 AM 25.7 °F 15.7 °F 12.0 °F 56% 30.19 in 10.0 mi NNW 10.4 mph 19.6 mph N/A   Clear
7:55 AM 26.6 °F 13.8 °F 11.3 °F 53% 30.21 in 10.0 mi NNW 17.3 mph 25.3 mph N/A   Clear
8:15 AM 27.5 °F 18.0 °F 9.7 °F 47% 30.23 in 10.0 mi NNW 10.4 mph 18.4 mph N/A   Clear
8:35 AM 27.9 °F 17.3 °F 10.8 °F 49% 30.24 in 10.0 mi North 12.7 mph 18.4 mph N/A   Scattered Clouds
8:55 AM 28.0 °F 16.5 °F 10.6 °F 48% 30.25 in 10.0 mi North 15.0 mph 19.6 mph N/A   Mostly Cloudy
9:15 AM 28.9 °F 20.4 °F 9.7 °F 45% 30.26 in 10.0 mi NW 9.2 mph - N/A   Mostly Cloudy
9:35 AM 28.4 °F 22.2 °F 10.0 °F 46% 30.28 in 10.0 mi West 5.8 mph - N/A   Overcast
9:55 AM 30.4 °F - 9.3 °F 41% 30.29 in 10.0 mi Calm Calm - N/A   Overcast
10:15 AM 30.9 °F 26.2 °F 9.9 °F 41% 30.30 in 10.0 mi North 4.6 mph - N/A   Overcast
10:35 AM 31.1 °F - 9.1 °F 40% 30.30 in 10.0 mi Calm Calm - N/A   Overcast
10:55 AM 32.0 °F - 10.4 °F 41% 30.30 in 10.0 mi Calm Calm - N/A   Overcast
11:15 AM 32.5 °F - 8.8 °F 37% 30.29 in 10.0 mi Calm Calm - N/A   Overcast
11:35 AM 32.9 °F - 8.1 °F 35% 30.29 in 10.0 mi Calm Calm - N/A   Overcast
11:55 AM 34.0 °F 28.0 °F 7.9 °F 34% 30.28 in 10.0 mi ESE 6.9 mph - N/A   Overcast
12:15 PM 34.0 °F 25.5 °F 11.7 °F 40% 30.28 in 10.0 mi West 11.5 mph 17.3 mph N/A   Mostly Cloudy
12:35 PM 34.0 °F 24.6 °F 13.8 °F 44% 30.28 in 10.0 mi West 13.8 mph - N/A   Mostly Cloudy
12:55 PM 34.7 °F 26.9 °F 12.0 °F 39% 30.28 in 10.0 mi WSW 10.4 mph 19.6 mph N/A   Mostly Cloudy
1:15 PM 35.1 °F 26.9 °F 11.5 °F 38% 30.28 in 10.0 mi West 11.5 mph 17.3 mph N/A   Scattered Clouds
1:35 PM 34.9 °F 26.2 °F 11.5 °F 38% 30.28 in 10.0 mi NNW 12.7 mph 25.3 mph N/A   Mostly Cloudy
1:55 PM 34.9 °F 25.3 °F 10.2 °F 36% 30.29 in 10.0 mi West 15.0 mph 27.6 mph N/A   Scattered Clouds
2:15 PM 35.1 °F 24.5 °F 8.2 °F 33% 30.28 in 10.0 mi NW 18.4 mph 29.9 mph N/A   Scattered Clouds
2:35 PM 35.4 °F 25.6 °F 9.9 °F 35% 30.29 in 10.0 mi WNW 16.1 mph 21.9 mph N/A   Clear
2:55 PM 35.2 °F 23.2 °F 8.6 °F 33% 30.29 in 10.0 mi WNW 24.2 mph 27.6 mph N/A   Clear
3:15 PM 34.3 °F 25.0 °F 8.2 °F 34% 30.30 in 10.0 mi WNW 13.8 mph 31.1 mph N/A   Clear
3:35 PM 34.0 °F 23.8 °F 9.9 °F 37% 30.31 in 10.0 mi NW 16.1 mph 27.6 mph N/A   Clear
3:55 PM 33.3 °F 22.8 °F 11.1 °F 40% 30.32 in 10.0 mi NW 16.1 mph 24.2 mph N/A   Clear
4:15 PM 32.0 °F 23.0 °F 12.4 °F 44% 30.32 in 10.0 mi WNW 11.5 mph 25.3 mph N/A   Clear
4:35 PM 31.1 °F 21.9 °F 12.2 °F 46% 30.33 in 10.0 mi NW 11.5 mph 23.0 mph N/A   Clear
4:55 PM 30.0 °F 19.5 °F 12.7 °F 49% 30.34 in 10.0 mi West 13.8 mph 19.6 mph N/A   Clear
5:15 PM 29.5 °F 18.4 °F 12.9 °F 50% 30.36 in 10.0 mi West 15.0 mph 24.2 mph N/A   Clear
5:35 PM 28.0 °F 18.1 °F 13.8 °F 55% 30.36 in 10.0 mi West 11.5 mph - N/A   Clear
5:55 PM 28.4 °F 18.5 °F 13.1 °F 53% 30.36 in 10.0 mi WNW 11.5 mph 16.1 mph N/A   Clear
6:15 PM 28.6 °F 16.8 °F 13.1 °F 52% 30.36 in 10.0 mi NW 16.1 mph 24.2 mph N/A   Clear
6:35 PM 28.2 °F 16.8 °F 13.5 °F 54% 30.36 in 10.0 mi NW 15.0 mph 19.6 mph N/A   Clear
6:55 PM 28.2 °F 15.9 °F 13.5 °F 54% 30.36 in 10.0 mi NW 17.3 mph 21.9 mph N/A   Clear
7:15 PM 28.4 °F 16.2 °F 12.9 °F 52% 30.36 in 10.0 mi WNW 17.3 mph 23.0 mph N/A   Clear
7:35 PM 27.9 °F 15.1 °F 12.7 °F 53% 30.36 in 10.0 mi WNW 18.4 mph 25.3 mph N/A   Clear
7:55 PM 27.5 °F 17.4 °F 12.0 °F 52% 30.40 in 10.0 mi WNW 11.5 mph 16.1 mph N/A   Clear
8:15 PM 27.0 °F 18.0 °F 12.2 °F 54% 30.40 in 10.0 mi West 9.2 mph 18.4 mph N/A   Scattered Clouds
8:35 PM 26.4 °F 13.6 °F 12.7 °F 56% 30.38 in 10.0 mi NW 17.3 mph 23.0 mph N/A   Clear
8:55 PM 27.3 °F 14.8 °F 12.7 °F 54% 30.36 in 10.0 mi WNW 17.3 mph 23.0 mph N/A   Clear
9:15 PM 27.0 °F 14.7 °F 12.6 °F 55% 30.36 in 10.0 mi NW 16.1 mph - N/A   Clear
9:35 PM 27.1 °F 15.4 °F 12.2 °F 53% 30.36 in 10.0 mi WNW 15.0 mph 23.0 mph N/A   Clear
9:55 PM 27.5 °F 13.9 °F 12.0 °F 52% 30.37 in 10.0 mi WNW 20.7 mph 26.5 mph N/A   Clear
10:15 PM 27.3 °F 14.8 °F 12.2 °F 53% 30.36 in 10.0 mi NW 17.3 mph 27.6 mph N/A   Clear
10:35 PM 27.5 °F 15.4 °F 12.2 °F 53% 30.35 in 10.0 mi NW 16.1 mph 27.6 mph N/A   Clear
10:55 PM 27.9 °F 15.1 °F 12.0 °F 52% 30.35 in 10.0 mi NNW 18.4 mph 26.5 mph N/A   Clear
11:15 PM 27.9 °F 15.1 °F 12.0 °F 52% 30.35 in 10.0 mi NW 18.4 mph 29.9 mph N/A   Clear
11:35 PM 28.6 °F 16.4 °F 11.7 °F 49% 30.34 in 10.0 mi NNW 17.3 mph 25.3 mph N/A   Clear
11:55 PM 28.8 °F 14.9 °F 11.7 °F 49% 30.32 in 10.0 mi NNW 23.0 mph 31.1 mph N/A   Clear